[[{"header":{"parameterUnit":"m.s-1","parameterCategory":2,"la1":30.2992,"la2":30.254,"lo1":-89.0895,"lo2":-89.0443,"dy":0.0025,"dx":0.0025,"nx":19,"ny":19,"refTime":"2026-05-11T21:00:00:Z","depth":"0","parameterNumber":2,"parameterNumberName":"U-component_of_CURRENTS"},"data":[0,0,0,0.0936,0.0938,0.104,0.1041,0.1098,0.1098,0,0,0,0,0,0,0,0,0,0,0,0.0884,0.0884,0.0936,0.0938,0.104,0.1041,0.1098,0.1098,0,0,0,0,0,0,0,0,0,0,0,0.0884,0.0884,0.0885,0.0939,0.104,0.1041,0.1098,0.104,0,0,0,0,0,0,0,0,0,0,0.095,0.089,0.0884,0.0885,0.0939,0.104,0.1041,0.1038,0.1043,0.103,0,0.1035,0,0.1072,0.11,0.11,0,0,0,0.0941,0.0885,0.0937,0.0885,0.094,0.104,0.0995,0.1042,0.1048,0.1037,0.1036,0.104,0.1073,0.1101,0.1101,0.1079,0.1079,0,0,0.0935,0.0882,0.0932,0.094,0.0951,0.0992,0.0998,0.1046,0.1029,0.1037,0.1042,0.1074,0.1101,0.1101,0.108,0.1079,0,0,0,0.0917,0.0877,0.0929,0.0936,0.0964,0.0994,0.1002,0.1027,0.1051,0.1043,0.1075,0.1101,0.1101,0.108,0.1079,0.1043,0,0,0,0.0914,0.0868,0.0926,0.0893,0.0963,0.1001,0.0981,0.1047,0.1055,0.1075,0.1101,0.1102,0.1081,0.108,0.1045,0.1023,0,0,0,0.0882,0.0864,0.0877,0.089,0.0939,0.1002,0.1029,0.105,0.1074,0.11,0.1102,0.1081,0.108,0.1047,0.1026,0.1008,0,0,0,0.0825,0.0821,0.0875,0.0875,0.0938,0.0996,0.1029,0.1059,0.1078,0.1101,0.1081,0.108,0.1048,0.1028,0.101,0.0992,0.0982,0,0,0.0794,0.0815,0.082,0.0872,0.0915,0.0983,0.0998,0.1034,0.1055,0.1061,0.1062,0.1044,0.1026,0.1009,0.093,0.0922,0,0,0,0.0794,0.0797,0.082,0.0852,0.0914,0.0955,0.1004,0.1023,0.1033,0.1062,0.1033,0.1022,0.1013,0.1005,0.0998,0.0993,0.1075,0.1075,0.1075,0.0673,0.0736,0.0751,0.0829,0.0858,0.0927,0.0947,0.0973,0.1003,0.0995,0.0984,0.0932,0.0923,0.0918,0.0912,0.0978,0.0977,0.0977,0.0977,0.063,0.0648,0.0707,0.0749,0.0806,0.0823,0.0886,0.0909,0.0915,0.0947,0.0939,0.0956,0.0908,0.0905,0.0975,0.0975,0.0975,0.0976,0.0976,0.0559,0.0583,0.0614,0.0668,0.0699,0.0767,0.0781,0.0828,0.0867,0.0857,0.0861,0.0862,0.0868,0.0858,0.0857,0.0857,0.0857,0.0857,0.0857,0.0479,0.0521,0.0534,0.0596,0.0615,0.0653,0.0724,0.0741,0.078,0.0811,0.0811,0.0839,0.0896,0.0911,0.0854,0.0854,0.0855,0.0855,0.0855,0.0423,0.0432,0.0452,0.0469,0.0521,0.0528,0.061,0.066,0.0688,0.0697,0.0754,0.0792,0.0803,0.0809,0.0821,0.0744,0.0744,0.0744,0.0744,0.036,0.0377,0.0372,0.0384,0.0406,0.0467,0.0462,0.0529,0.0628,0.067,0.0705,0.0727,0.0732,0.0741,0.0748,0.076,0.067,0.067,0.067,0.0314,0.0328,0.0294,0.0324,0.0349,0.0387,0.0378,0.0408,0.0569,0.0667,0.0698,0.0702,0.0736,0.0745,0.0765,0.0775,0.0798,0,0]},{"header":{"parameterUnit":"m.s-1","parameterCategory":2,"la1":30.2992,"la2":30.254,"lo1":-89.0895,"lo2":-89.0443,"dy":0.0025,"dx":0.0025,"nx":19,"ny":19,"refTime":"2026-05-11T21:00:00:Z","depth":"0","parameterNumber":3,"parameterNumberName":"V-component_of_CURRENTS"},"data":[0,0,0,-0.1149,-0.1154,-0.1397,-0.1398,-0.1578,-0.1579,0,0,0,0,0,0,0,0,0,0,0,-0.1047,-0.1048,-0.1149,-0.1155,-0.1397,-0.1398,-0.1578,-0.1579,0,0,0,0,0,0,0,0,0,0,0,-0.1046,-0.1048,-0.1049,-0.1156,-0.1397,-0.1398,-0.1578,-0.1427,0,0,0,0,0,0,0,0,0,0,-0.1208,-0.1123,-0.1047,-0.1049,-0.1157,-0.1397,-0.1398,-0.1421,-0.1436,-0.1431,0,-0.1464,0,-0.1532,-0.1589,-0.1589,0,0,0,-0.1155,-0.111,-0.1188,-0.1049,-0.1159,-0.1396,-0.1288,-0.1431,-0.1448,-0.145,-0.1467,-0.1476,-0.1535,-0.1589,-0.159,-0.1648,-0.1647,0,0,-0.1142,-0.108,-0.1176,-0.1198,-0.1214,-0.128,-0.1295,-0.1443,-0.1445,-0.1468,-0.1481,-0.1538,-0.159,-0.1591,-0.1648,-0.1648,0,0,0,-0.1103,-0.107,-0.1148,-0.1189,-0.1248,-0.1287,-0.1305,-0.1439,-0.1468,-0.1484,-0.154,-0.1591,-0.1593,-0.1648,-0.1648,-0.1627,0,0,0,-0.1095,-0.1049,-0.1141,-0.1106,-0.1245,-0.1363,-0.1297,-0.1457,-0.1478,-0.1539,-0.1591,-0.1594,-0.1649,-0.1648,-0.1628,-0.1602,0,0,0,-0.1037,-0.1043,-0.1072,-0.1102,-0.1212,-0.1363,-0.1402,-0.1464,-0.1511,-0.1589,-0.1594,-0.1649,-0.1648,-0.1629,-0.1605,-0.1565,0,0,0,-0.0966,-0.1008,-0.1069,-0.1137,-0.1209,-0.135,-0.1402,-0.1497,-0.1559,-0.1592,-0.1649,-0.1648,-0.163,-0.1607,-0.1567,-0.1469,-0.1452,0,0,-0.0981,-0.1007,-0.1052,-0.1115,-0.1241,-0.1318,-0.1415,-0.1507,-0.1538,-0.1592,-0.1596,-0.1628,-0.1605,-0.1565,-0.1416,-0.14,0,0,0,-0.1034,-0.1057,-0.1114,-0.1196,-0.1311,-0.1392,-0.1487,-0.152,-0.1571,-0.1574,-0.1615,-0.1601,-0.1577,-0.1521,-0.1509,-0.1455,-0.1644,-0.1644,-0.1644,-0.0911,-0.1015,-0.1097,-0.1227,-0.1301,-0.1428,-0.148,-0.1523,-0.1568,-0.1566,-0.1575,-0.1516,-0.1457,-0.1446,-0.1392,-0.1573,-0.1573,-0.1573,-0.1573,-0.0915,-0.0968,-0.1071,-0.1189,-0.1279,-0.1345,-0.1456,-0.1488,-0.1514,-0.1551,-0.1528,-0.1491,-0.1431,-0.1378,-0.1572,-0.1572,-0.1572,-0.1572,-0.1572,-0.0839,-0.0885,-0.0966,-0.1101,-0.1178,-0.1298,-0.133,-0.1408,-0.1463,-0.1457,-0.1381,-0.138,-0.134,-0.144,-0.1439,-0.1439,-0.1439,-0.1439,-0.1439,-0.0721,-0.0818,-0.089,-0.1028,-0.1077,-0.1147,-0.1259,-0.1275,-0.1297,-0.1328,-0.1327,-0.1295,-0.1474,-0.1487,-0.1434,-0.1435,-0.1435,-0.1436,-0.1436,-0.067,-0.0695,-0.0799,-0.0856,-0.0972,-0.0971,-0.1085,-0.1095,-0.1123,-0.1103,-0.111,-0.1259,-0.1249,-0.1259,-0.1265,-0.1158,-0.1158,-0.1158,-0.1158,-0.0577,-0.0622,-0.0708,-0.077,-0.0817,-0.0876,-0.0825,-0.0861,-0.0908,-0.091,-0.0967,-0.0976,-0.099,-0.0968,-0.0984,-0.0986,-0.081,-0.081,-0.0809,-0.0524,-0.0561,-0.0589,-0.0688,-0.0731,-0.0745,-0.068,-0.063,-0.0709,-0.0795,-0.0909,-0.0924,-0.0944,-0.097,-0.0945,-0.0971,-0.0979,0,0]}],[{"header":{"parameterUnit":"m.s-1","parameterCategory":2,"la1":30.2992,"la2":30.254,"lo1":-89.0895,"lo2":-89.0443,"dy":0.0025,"dx":0.0025,"nx":19,"ny":19,"refTime":"2026-05-11T21:00:00:Z","depth":"2","parameterNumber":2,"parameterNumberName":"U-component_of_CURRENTS"},"data":[0,0,0,0.0358,0.0357,0.0324,0.0324,0.0371,0.0371,0,0,0,0,0,0,0,0,0,0,0,0.0381,0.0381,0.0358,0.0356,0.0324,0.0324,0.0371,0.0371,0,0,0,0,0,0,0,0,0,0,0,0.0381,0.0381,0.038,0.0356,0.0324,0.0324,0.0371,0.0376,0,0,0,0,0,0,0,0,0,0,0.0397,0.0404,0.0381,0.038,0.0356,0.0324,0.0324,0.0375,0.0375,0.0408,0,0.0403,0,0.0381,0.0376,0.0376,0,0,0,0.0366,0.0404,0.039,0.038,0.0356,0.0324,0.0341,0.0374,0.0375,0.0409,0.0403,0.0404,0.0382,0.0376,0.0377,0.0448,0.0448,0,0,0.0368,0.0382,0.0389,0.039,0.0348,0.0342,0.034,0.0374,0.0381,0.0403,0.0404,0.0383,0.0377,0.0377,0.0447,0.0448,0,0,0,0.0367,0.0384,0.0367,0.0389,0.0372,0.0341,0.0339,0.0379,0.0372,0.0404,0.0383,0.0377,0.0378,0.0447,0.0448,0.0481,0,0,0,0.0368,0.0382,0.0368,0.0377,0.037,0.0363,0.0344,0.037,0.0372,0.0383,0.0377,0.0378,0.0447,0.0447,0.0479,0.0459,0,0,0,0.0382,0.0383,0.0378,0.0378,0.0357,0.0361,0.0356,0.037,0.036,0.0376,0.0379,0.0447,0.0447,0.0478,0.0458,0.0477,0,0,0,0.04,0.0376,0.0379,0.0349,0.0357,0.0318,0.0355,0.0348,0.0358,0.0377,0.0447,0.0448,0.0477,0.0457,0.0476,0.0472,0.0476,0,0,0.0373,0.0374,0.0353,0.0354,0.0311,0.0323,0.0325,0.0365,0.0386,0.0443,0.0444,0.048,0.0458,0.0477,0.0512,0.0515,0,0,0,0.0346,0.0338,0.0322,0.0305,0.0281,0.0298,0.0326,0.0343,0.0409,0.0393,0.0485,0.0469,0.048,0.0476,0.0479,0.0451,0.0451,0.0451,0.0451,0.0349,0.0327,0.03,0.0283,0.0268,0.0297,0.0329,0.0374,0.0405,0.0439,0.0502,0.054,0.0538,0.0539,0.0526,0.0526,0.0526,0.0526,0.0526,0.0334,0.0319,0.0306,0.0287,0.0298,0.0323,0.0346,0.0397,0.0489,0.0491,0.0503,0.0517,0.0544,0.0529,0.0529,0.0528,0.0528,0.0528,0.0528,0.0345,0.0332,0.034,0.0324,0.0337,0.0352,0.0404,0.0469,0.0489,0.0548,0.0561,0.056,0.0544,0.058,0.058,0.058,0.058,0.058,0.0581,0.0365,0.0356,0.0337,0.0344,0.0356,0.0386,0.0445,0.0495,0.0546,0.057,0.0571,0.0558,0.0556,0.0546,0.0581,0.0581,0.0581,0.0581,0.0581,0.0337,0.0347,0.0325,0.0331,0.0351,0.0377,0.0433,0.0503,0.0562,0.0571,0.0584,0.0584,0.0565,0.0563,0.0553,0.0587,0.0587,0.0587,0.0587,0.0319,0.0317,0.0284,0.0278,0.0307,0.0355,0.0388,0.0444,0.0511,0.0521,0.0523,0.0515,0.0517,0.0494,0.0494,0.0482,0.0497,0.0497,0.0497,0.0279,0.0295,0.0254,0.0258,0.0286,0.0329,0.0327,0.033,0.0392,0.049,0.0476,0.0587,0.0583,0.0583,0.0553,0.055,0.0533,0,0]},{"header":{"parameterUnit":"m.s-1","parameterCategory":2,"la1":30.2992,"la2":30.254,"lo1":-89.0895,"lo2":-89.0443,"dy":0.0025,"dx":0.0025,"nx":19,"ny":19,"refTime":"2026-05-11T21:00:00:Z","depth":"2","parameterNumber":3,"parameterNumberName":"V-component_of_CURRENTS"},"data":[0,0,0,0.0141,0.0139,0.0035,0.0035,-0.0099,-0.01,0,0,0,0,0,0,0,0,0,0,0,0.0176,0.0176,0.0141,0.0139,0.0035,0.0035,-0.0099,-0.01,0,0,0,0,0,0,0,0,0,0,0,0.0177,0.0176,0.0175,0.0138,0.0035,0.0034,-0.0098,-0.0021,0,0,0,0,0,0,0,0,0,0,0.0079,0.0143,0.0176,0.0175,0.0138,0.0035,0.0034,-0.0017,-0.0026,-0.0051,0,-0.0068,0,-0.0086,-0.0109,-0.0109,0,0,0,0.0135,0.0151,0.0093,0.0175,0.0137,0.0035,0.0081,-0.0022,-0.0032,-0.0062,-0.007,-0.0075,-0.0089,-0.011,-0.011,-0.023,-0.0231,0,0,0.0141,0.0184,0.01,0.0087,0.0108,0.0084,0.0078,-0.0028,-0.0021,-0.007,-0.0078,-0.0091,-0.011,-0.0111,-0.023,-0.023,0,0,0,0.0159,0.0189,0.0134,0.0093,0.0074,0.0081,0.0074,-0.0016,-0.0043,-0.008,-0.0092,-0.0111,-0.0113,-0.023,-0.023,-0.0224,0,0,0,0.0163,0.0199,0.0137,0.0166,0.0076,0.0036,0.0089,-0.0035,-0.0048,-0.0092,-0.0111,-0.0114,-0.0229,-0.023,-0.0224,-0.0225,0,0,0,0.0181,0.0202,0.0183,0.0168,0.0121,0.0037,0.0005,-0.0039,-0.0056,-0.0109,-0.0114,-0.0229,-0.023,-0.0223,-0.0224,-0.0227,0,0,0,0.0239,0.0231,0.0184,0.0173,0.0122,0.0079,0.0006,-0.0031,-0.0069,-0.0112,-0.0229,-0.023,-0.0223,-0.0224,-0.0227,-0.0155,-0.0152,0,0,0.0259,0.0235,0.0225,0.018,0.0153,0.0093,0.005,-0.0039,-0.0097,-0.0195,-0.0198,-0.0224,-0.0224,-0.0227,-0.0204,-0.0199,0,0,0,0.0251,0.0232,0.0221,0.0189,0.0152,0.0115,0.0024,-0.0013,-0.0123,-0.0126,-0.0243,-0.0244,-0.0245,-0.0202,-0.0198,-0.0234,-0.0234,-0.0234,-0.0234,0.0344,0.0287,0.0267,0.0196,0.0188,0.0109,0.0054,-0.003,-0.0102,-0.0144,-0.0252,-0.0271,-0.0225,-0.0222,-0.0266,-0.0266,-0.0266,-0.0266,-0.0266,0.03,0.024,0.0248,0.0167,0.0159,0.0118,0.0066,-0.0013,-0.0183,-0.0211,-0.0213,-0.0215,-0.0217,-0.0266,-0.0266,-0.0266,-0.0266,-0.0266,-0.0266,0.0279,0.0232,0.0169,0.0109,0.0101,0.0082,-0.0005,-0.0125,-0.0155,-0.0241,-0.0229,-0.0228,-0.0257,-0.0274,-0.0274,-0.0274,-0.0274,-0.0274,-0.0274,0.0206,0.0161,0.0165,0.0063,0.0032,0.0001,-0.01,-0.0151,-0.0181,-0.0225,-0.0225,-0.0273,-0.0273,-0.0258,-0.0275,-0.0275,-0.0275,-0.0275,-0.0275,0.0122,0.0147,0.01,0.0058,-0.0001,-0.0058,-0.0148,-0.0134,-0.0189,-0.0139,-0.0194,-0.0196,-0.0191,-0.0193,-0.0177,-0.0172,-0.0172,-0.0172,-0.0171,0.0137,0.0136,0.0075,0.0019,-0.0005,-0.0091,-0.0077,-0.0024,-0.0011,0.0025,0.0017,0.0049,0.004,0.0059,0.0051,0.0073,0.0143,0.0144,0.0144,0.0172,0.0087,0.0059,-0.0012,-0.0075,-0.0035,0.0015,0.0056,0.0158,0.0159,0.0095,-0.0155,-0.0131,-0.0136,-0.0125,-0.0131,-0.0104,0,0]}],[{"header":{"parameterUnit":"m.s-1","parameterCategory":2,"la1":30.2992,"la2":30.254,"lo1":-89.0895,"lo2":-89.0443,"dy":0.0025,"dx":0.0025,"nx":19,"ny":19,"refTime":"2026-05-11T21:00:00:Z","depth":"4","parameterNumber":2,"parameterNumberName":"U-component_of_CURRENTS"},"data":[0,0,0,-0.0283,-0.0284,-0.0363,-0.0364,-0.0572,-0.0574,0,0,0,0,0,0,0,0,0,0,0,-0.0263,-0.0263,-0.0283,-0.0284,-0.0363,-0.0364,-0.0572,-0.0574,0,0,0,0,0,0,0,0,0,0,0,-0.0263,-0.0263,-0.0263,-0.0284,-0.0363,-0.0364,-0.0571,-0.0491,0,0,0,0,0,0,0,0,0,0,-0.0404,-0.0366,-0.0263,-0.0263,-0.0284,-0.0363,-0.0364,-0.0487,-0.0496,-0.0558,0,-0.0556,0,-0.0558,-0.0588,-0.0588,0,0,0,-0.0311,-0.0358,-0.0367,-0.0263,-0.0284,-0.0363,-0.0335,-0.0491,-0.0503,-0.0571,-0.0558,-0.0565,-0.0561,-0.0589,-0.059,-0.0698,-0.0698,0,0,-0.0306,-0.0298,-0.0359,-0.0373,-0.0289,-0.0332,-0.0337,-0.0497,-0.0512,-0.0559,-0.057,-0.0564,-0.059,-0.0592,-0.0699,-0.0698,0,0,0,-0.0276,-0.0295,-0.0299,-0.0366,-0.0365,-0.0334,-0.034,-0.0506,-0.0502,-0.0572,-0.0567,-0.0592,-0.0594,-0.0699,-0.0698,-0.0561,0,0,0,-0.0274,-0.0275,-0.0297,-0.0296,-0.036,-0.0422,-0.0344,-0.0492,-0.0509,-0.0566,-0.0592,-0.0596,-0.0699,-0.0699,-0.0565,-0.0529,0,0,0,-0.0262,-0.0274,-0.0275,-0.0295,-0.0314,-0.0419,-0.0427,-0.0495,-0.0506,-0.0589,-0.0597,-0.07,-0.0699,-0.0569,-0.0536,-0.0506,0,0,0,-0.0264,-0.0261,-0.0275,-0.0286,-0.0313,-0.0375,-0.0426,-0.0488,-0.0554,-0.0593,-0.0699,-0.0698,-0.0571,-0.054,-0.0509,-0.0511,0,0,0,-0.0258,-0.026,-0.0269,-0.0282,-0.0315,-0.0367,-0.0417,-0.0513,-0.056,-0.0661,-0.0663,-0.0564,-0.0536,-0.0506,-0.046,0,0,0,0,-0.0266,-0.0261,-0.028,-0.0302,-0.0355,-0.0387,-0.0479,-0.0497,-0.0527,-0.0588,-0.0585,-0.0573,-0.0558,-0.0571,-0.0694,-0.0694,-0.0694,-0.0695,-0.0695,-0.0234,-0.0259,-0.0273,-0.0305,-0.0349,-0.0416,-0.0435,-0.0475,-0.0525,-0.0488,-0.0474,-0.0381,-0.0388,-0.0481,-0.048,-0.0479,-0.0479,-0.0478,-0.0478,-0.0198,-0.02,-0.0242,-0.0245,-0.0295,-0.0329,-0.0383,-0.038,-0.0361,-0.0392,-0.0383,-0.0442,-0.0465,-0.0468,-0.047,-0.0471,-0.0472,-0.0473,-0.0474,-0.0155,-0.016,-0.0152,-0.0162,-0.0176,-0.0229,-0.0226,-0.0228,-0.0244,-0.0211,-0.0241,-0.0311,-0.0308,-0.0182,-0.0181,-0.0181,-0.0181,-0.018,-0.018,-0.0108,-0.011,-0.0069,-0.0075,-0.0072,-0.0074,-0.0098,-0.0114,-0.0124,-0.0112,-0.0159,-0.0282,-0.0292,-0.0294,-0.0175,-0.0176,-0.0177,-0.0177,-0.0178,-0.0064,-0.0037,0.0009,0.0031,0.0023,0.0006,-0.0019,-0.0042,-0.0034,-0.004,-0.0088,-0.0094,-0.0157,-0.0171,-0.0172,-0.0011,-0.0011,-0.0011,0,-0.0023,-0.0011,0.0057,0.0081,0.0076,0.0034,0.0031,-0.0005,-0.0018,0.001,-0.0055,-0.0108,-0.0113,-0.019,-0.0201,-0.0203,0,0,0,0.0006,0.0022,0.0066,0.0092,0.0087,0.0044,0.002,0.0032,0.0,-0.002,0.0,-0.0003,-0.0178,-0.016,-0.0274,-0.0286,-0.0297,0,0]},{"header":{"parameterUnit":"m.s-1","parameterCategory":2,"la1":30.2992,"la2":30.254,"lo1":-89.0895,"lo2":-89.0443,"dy":0.0025,"dx":0.0025,"nx":19,"ny":19,"refTime":"2026-05-11T21:00:00:Z","depth":"4","parameterNumber":3,"parameterNumberName":"V-component_of_CURRENTS"},"data":[0,0,0,0.052,0.0523,0.0637,0.0638,0.0657,0.0657,0,0,0,0,0,0,0,0,0,0,0,0.0479,0.048,0.052,0.0523,0.0637,0.0638,0.0657,0.0657,0,0,0,0,0,0,0,0,0,0,0,0.0479,0.048,0.0481,0.0523,0.0637,0.0638,0.0657,0.0602,0,0,0,0,0,0,0,0,0,0,0.0506,0.0501,0.048,0.0481,0.0524,0.0637,0.0638,0.0601,0.0605,0.057,0,0.0595,0,0.0625,0.0656,0.0656,0,0,0,0.0521,0.0498,0.0516,0.0481,0.0525,0.0637,0.0585,0.0604,0.0609,0.0575,0.0596,0.0598,0.0626,0.0656,0.0655,0.062,0.062,0,0,0.0514,0.0509,0.0513,0.0519,0.0562,0.0581,0.0588,0.0609,0.0621,0.0596,0.0599,0.0626,0.0655,0.0655,0.0621,0.062,0,0,0,0.0498,0.0504,0.0525,0.0517,0.0548,0.0585,0.0593,0.0621,0.0625,0.06,0.0626,0.0655,0.0655,0.0621,0.062,0.0602,0,0,0,0.0494,0.0495,0.0522,0.0521,0.0548,0.0607,0.0604,0.0623,0.0627,0.0626,0.0655,0.0655,0.0621,0.0621,0.0603,0.0603,0,0,0,0.0473,0.0493,0.0506,0.052,0.057,0.0608,0.0614,0.0626,0.0642,0.0656,0.0655,0.0621,0.0621,0.0604,0.0605,0.0594,0,0,0,0.0462,0.047,0.0506,0.0534,0.0569,0.0567,0.0615,0.0642,0.0653,0.0655,0.0621,0.062,0.0604,0.0605,0.0594,0.0495,0,0,0,0.0454,0.047,0.0485,0.0519,0.0499,0.0551,0.0539,0.0595,0.0629,0.0605,0.0606,0.0603,0.0605,0.0594,0.0463,0,0,0,0,0.047,0.0486,0.0482,0.0503,0.0498,0.0494,0.0545,0.0561,0.0601,0.0636,0.0597,0.0599,0.0592,0.0536,0.0618,0.0618,0.0618,0.0618,0.0618,0.0481,0.0481,0.0471,0.0464,0.0456,0.0462,0.0465,0.0499,0.0541,0.0566,0.0579,0.0552,0.049,0.0569,0.0569,0.0569,0.0569,0.0568,0.0568,0.0479,0.0477,0.0466,0.0471,0.0439,0.0447,0.0424,0.0468,0.0491,0.0538,0.0533,0.0514,0.0566,0.0567,0.0567,0.0567,0.0568,0.0568,0.0568,0.0504,0.0479,0.0523,0.0505,0.0494,0.0482,0.0442,0.0482,0.0499,0.0492,0.0465,0.0541,0.0549,0.0521,0.0521,0.0521,0.0521,0.0521,0.0521,0.05,0.0508,0.0541,0.0532,0.0532,0.0508,0.0497,0.0421,0.0429,0.0437,0.0522,0.0537,0.0538,0.0546,0.052,0.052,0.052,0.052,0.052,0.0471,0.0534,0.0548,0.0564,0.05,0.0437,0.0446,0.0324,0.027,0.0187,0.0386,0.0393,0.0393,0.0398,0.0401,0.0331,0.033,0.0329,0,0.0468,0.0488,0.0541,0.0523,0.0414,0.0368,0.0235,0.0135,0.0157,0.0258,0.0193,0.0425,0.0429,0.0432,0.0434,0.0438,0,0,0,0.0427,0.046,0.0481,0.0495,0.0377,0.0206,0.0179,0.0176,0.0249,0.0032,0.0294,0.0303,0.0179,0.0517,0.0534,0.0536,0.0549,0,0]}]]